Location: Newark
(48.6461°N, 4.3644°W)
Time: 19:26:40
(UTC+00:00)

Transit 4A - Pass Details

Date: 21 January 2020
Orbit: 872 x 973 km, 66.8° (Epoch: 22 February)

Event Time Altitude Azimuth Distance (km) Brightness Sun altitude
Rises 07:11:43 0° 189° (S) 3,552 11.1 -8.1°
Reaches altitude 10° 07:14:22 10° 182° (S) 2,598 10.5 -7.7°
Maximum altitude 07:19:57 41° 114° (ESE) 1,282 9.4 -6.8°
Drops below altitude 10° 07:25:26 10° 46° (NE) 2,556 10.5 -6.0°
Sets 07:28:01 0° 40° (NE) 3,489 11.1 -5.6°
